| time (UTC) | temp F | wind direction | speed MPH | gust MPH | rain 1hr in | rain 24hr in | rain mn in | humidity % | barometer mb |
| 20260504223659 | 87 | 278 | 0.0 | 1.0 | 0.00 | 0.00 | 0.00 | 30 | 1016.5 |
| 20260504223154 | 87 | 279 | 0.0 | 1.0 | 0.00 | 0.00 | 0.00 | 31 | 1016.3 |
| 20260504222652 | 86 | 279 | 0.0 | 1.0 | 0.00 | 0.00 | 0.00 | 31 | 1016.6 |
| 20260504222148 | 87 | 270 | 0.0 | 1.0 | 0.00 | 0.00 | 0.00 | 31 | 1016.5 |
| 20260504221646 | 84 | 345 | 1.0 | 2.0 | 0.00 | 0.00 | 0.00 | 33 | 1016.5 |
| 20260504221143 | 84 | 270 | 0.0 | 1.0 | 0.00 | 0.00 | 0.00 | 28 | 1016.5 |
| 20260504220639 | 86 | 270 | 0.0 | 2.0 | 0.00 | 0.00 | 0.00 | 28 | 1016.7 |
| 20260504220137 | 86 | 345 | 0.0 | 1.0 | 0.00 | 0.00 | 0.00 | 30 | 1016.5 |
| 20260504215632 | 87 | 276 | 0.0 | 2.0 | 0.00 | 0.00 | 0.00 | 27 | 1016.4 |
| 20260504215130 | 85 | 276 | 0.0 | 2.0 | 0.00 | 0.00 | 0.00 | 29 | 1016.6 |
| 20260504214626 | 83 | 311 | 0.0 | 3.0 | 0.00 | 0.00 | 0.00 | 32 | 1016.5 |
| 20260504214122 | 85 | 285 | 1.0 | 2.0 | 0.00 | 0.00 | 0.00 | 29 | 1016.6 |
| 20260504213619 | 84 | 279 | 0.0 | 1.0 | 0.00 | 0.00 | 0.00 | 31 | 1016.7 |
| 20260504213116 | 85 | 294 | 0.0 | 1.0 | 0.00 | 0.00 | 0.00 | 30 | 1016.6 |
| 20260504212612 | 83 | 105 | 1.0 | 1.0 | 0.00 | 0.00 | 0.00 | 31 | 1016.6 |
| 20260504212109 | 85 | 12 | 2.0 | 7.0 | 0.00 | 0.00 | 0.00 | 28 | 1016.6 |
| 20260504211606 | 85 | 270 | 0.0 | 1.0 | 0.00 | 0.00 | 0.00 | 35 | 1016.9 |
| 20260504211103 | 86 | 294 | 0.0 | 2.0 | 0.00 | 0.00 | 0.00 | 35 | 1016.7 |
| 20260504210601 | 83 | 60 | 1.0 | 2.0 | 0.00 | 0.00 | 0.00 | 29 | 1016.9 |
| 20260504210056 | 85 | 297 | 0.0 | 1.0 | 0.00 | 0.00 | 0.00 | 30 | 1016.7 |
| 20260504205554 | 85 | 278 | 0.0 | 1.0 | 0.00 | 0.00 | 0.00 | 32 | 1016.5 |
| 20260504205052 | 83 | 63 | 0.0 | 0.0 | 0.00 | 0.00 | 0.00 | 31 | 1016.7 |
| 20260504204550 | 82 | 3 | 0.0 | 3.0 | 0.00 | 0.00 | 0.00 | 33 | 1017.0 |
| 20260504204049 | 85 | 279 | 0.0 | 2.0 | 0.00 | 0.00 | 0.00 | 34 | 1016.9 |
| 20260504203547 | 81 | 90 | 1.0 | 6.0 | 0.00 | 0.00 | 0.00 | 30 | 1017.0 |
| 20260504203044 | 84 | 99 | 0.0 | 2.0 | 0.00 | 0.00 | 0.00 | 30 | 1017.0 |
| 20260504202539 | 83 | 81 | 0.0 | 3.0 | 0.00 | 0.00 | 0.00 | 32 | 1017.3 |
| 20260504202036 | 83 | 287 | 0.0 | 2.0 | 0.00 | 0.00 | 0.00 | 32 | 1017.4 |
| 20260504201533 | 84 | 78 | 0.0 | 2.0 | 0.00 | 0.00 | 0.00 | 35 | 1017.3 |
| 20260504201031 | 84 | 324 | 2.0 | 3.0 | 0.00 | 0.00 | 0.00 | 30 | 1017.1 |
| 20260504200527 | 84 | 294 | 0.0 | 2.0 | 0.00 | 0.00 | 0.00 | 35 | 1017.2 |
| 20260504200024 | 84 | 90 | 0.0 | 3.0 | 0.00 | 0.00 | 0.00 | 32 | 1017.4 |
| 20260504195520 | 85 | 278 | 1.0 | 2.0 | 0.00 | 0.00 | 0.00 | 31 | 1017.4 |
| 20260504195017 | 82 | 306 | 3.0 | 3.0 | 0.00 | 0.00 | 0.00 | 31 | 1017.6 |
| 20260504194514 | 82 | 278 | 0.0 | 2.0 | 0.00 | 0.00 | 0.00 | 33 | 1017.5 |
| 20260504194009 | 84 | 81 | 0.0 | 6.0 | 0.00 | 0.00 | 0.00 | 32 | 1017.6 |
| 20260504193506 | 84 | 270 | 0.0 | 2.0 | 0.00 | 0.00 | 0.00 | 37 | 1017.4 |
| 20260504193005 | 83 | 60 | 0.0 | 1.0 | 0.00 | 0.00 | 0.00 | 32 | 1017.6 |
| 20260504192502 | 80 | 354 | 1.0 | 4.0 | 0.00 | 0.00 | 0.00 | 30 | 1017.7 |
| 20260504192001 | 84 | 14 | 0.0 | 1.0 | 0.00 | 0.00 | 0.00 | 32 | 1017.7 |
| 20260504191458 | 84 | 71 | 0.0 | 2.0 | 0.00 | 0.00 | 0.00 | 33 | 1017.8 |
| 20260504190953 | 84 | 66 | 0.0 | 1.0 | 0.00 | 0.00 | 0.00 | 34 | 1017.7 |
| 20260504190449 | 84 | 77 | 1.0 | 2.0 | 0.00 | 0.00 | 0.00 | 30 | 1017.8 |
| 20260504185946 | 85 | 291 | 0.0 | 2.0 | 0.00 | 0.00 | 0.00 | 33 | 1017.8 |
| 20260504185443 | 83 | 74 | 0.0 | 2.0 | 0.00 | 0.00 | 0.00 | 36 | 1017.9 |
| 20260504184939 | 83 | 0 | 0.0 | 1.0 | 0.00 | 0.00 | 0.00 | 33 | 1017.9 |
| 20260504184435 | 83 | 81 | 1.0 | 1.0 | 0.00 | 0.00 | 0.00 | 33 | 1018.0 |
| 20260504183931 | 83 | 66 | 0.0 | 3.0 | 0.00 | 0.00 | 0.00 | 33 | 1018.1 |
| 20260504183429 | 82 | 45 | 2.0 | 2.0 | 0.00 | 0.00 | 0.00 | 34 | 1018.3 |
| 20260504182927 | 82 | 81 | 1.0 | 2.0 | 0.00 | 0.00 | 0.00 | 31 | 1018.3 |
| 20260504182423 | 80 | 83 | 1.0 | 3.0 | 0.00 | 0.00 | 0.00 | 31 | 1018.3 |
| 20260504181920 | 79 | 8 | 0.0 | 4.0 | 0.00 | 0.00 | 0.00 | 39 | 1018.5 |
| 20260504181417 | 82 | 292 | 2.0 | 2.0 | 0.00 | 0.00 | 0.00 | 37 | 1018.5 |
| 20260504180916 | 82 | 283 | 0.0 | 0.0 | 0.00 | 0.00 | 0.00 | 36 | 1018.5 |
| 20260504180415 | 81 | 0 | 0.0 | 2.0 | 0.00 | 0.00 | 0.00 | 34 | 1018.3 |
| 20260504175912 | 80 | 66 | 0.0 | 1.0 | 0.00 | 0.00 | 0.00 | 36 | 1018.5 |
| 20260504175409 | 79 | 74 | 2.0 | 3.0 | 0.00 | 0.00 | 0.00 | 37 | 1018.3 |
| 20260504174907 | 80 | 329 | 4.0 | 4.0 | 0.00 | 0.00 | 0.00 | 36 | 1018.5 |
| 20260504174404 | 80 | 90 | 1.0 | 3.0 | 0.00 | 0.00 | 0.00 | 36 | 1018.6 |
| 20260504173901 | 81 | 74 | 0.0 | 2.0 | 0.00 | 0.00 | 0.00 | 39 | 1018.9 |
| 20260504173357 | 80 | 300 | 0.0 | 2.0 | 0.00 | 0.00 | 0.00 | 38 | 1018.9 |
| 20260504172855 | 78 | 84 | 0.0 | 5.0 | 0.00 | 0.00 | 0.00 | 42 | 1018.7 |
| 20260504172351 | 80 | 81 | 0.0 | 1.0 | 0.00 | 0.00 | 0.00 | 34 | 1018.9 |
| 20260504171847 | 80 | 74 | 0.0 | 1.0 | 0.00 | 0.00 | 0.00 | 38 | 1019.0 |
| 20260504171345 | 78 | 287 | 0.0 | 3.0 | 0.00 | 0.00 | 0.00 | 41 | 1019.0 |
| 20260504170842 | 77 | 276 | 0.0 | 2.0 | 0.00 | 0.00 | 0.00 | 39 | 1018.9 |
| 20260504170338 | 78 | 80 | 0.0 | 2.0 | 0.00 | 0.00 | 0.00 | 34 | 1019.3 |
| 20260504160257 | 72 | 77 | 0.0 | 0.0 | 0.00 | 0.00 | 0.00 | 46 | 1020.3 |
| 20260504150722 | 69 | 297 | 3.0 | 3.0 | 0.00 | 0.00 | 0.00 | 51 | 1020.9 |
| 20260504150219 | 67 | 354 | 0.0 | 2.0 | 0.00 | 0.00 | 0.00 | 47 | 1020.7 |
| 20260504141148 | 62 | 345 | 0.0 | 2.0 | 0.00 | 0.00 | 0.00 | 65 | 1020.6 |
| 20260504140645 | 62 | 8 | 0.0 | 1.0 | 0.00 | 0.00 | 0.00 | 64 | 1020.6 |
| 20260504140140 | 61 | 99 | 0.0 | 0.0 | 0.00 | 0.00 | 0.00 | 71 | 1020.5 |
| 20260504130609 | 53 | 54 | 0.0 | 0.0 | 0.00 | 0.00 | 0.00 | 79 | 1020.7 |
| 20260504130105 | 53 | 337 | 1.0 | 2.0 | 0.00 | 0.00 | 0.00 | 79 | 1020.6 |
| 20260504110456 | 41 | 126 | 0.0 | 1.0 | 0.00 | 0.00 | 0.00 | 98 | 1020.5 |
| 20260504100419 | 41 | 105 | 1.0 | 1.0 | 0.00 | 0.00 | 0.00 | 98 | 1019.8 |
| 20260504081812 | 43 | 75 | 0.0 | 0.0 | 0.00 | 0.00 | 0.00 | 95 | 1019.6 |
| 20260504081309 | 44 | 74 | 0.0 | 0.0 | 0.00 | 0.00 | 0.00 | 95 | 1019.6 |
| 20260504080804 | 44 | 98 | 0.0 | 1.0 | 0.00 | 0.00 | 0.00 | 95 | 1019.5 |
| 20260504080301 | 44 | 66 | 0.0 | 1.0 | 0.00 | 0.00 | 0.00 | 95 | 1019.4 |
| 20260504070229 | 45 | 74 | 0.0 | 0.0 | 0.00 | 0.00 | 0.00 | 93 | 1019.7 |
| 20260504060149 | 47 | 90 | 0.0 | 0.0 | 0.00 | 0.00 | 0.00 | 88 | 1019.8 |
| 20260504050617 | 48 | 82 | 0.0 | 0.0 | 0.00 | 0.00 | 0.00 | 86 | 1019.7 |
| 20260504050115 | 48 | 82 | 0.0 | 0.0 | 0.00 | 0.00 | 0.00 | 86 | 1019.9 |
| 20260504045612 | 48 | 74 | 0.0 | 0.0 | 0.00 | 0.00 | 0.00 | 86 | 1019.7 |
| 20260504045106 | 48 | 74 | 0.0 | 0.0 | 0.00 | 0.00 | 0.00 | 85 | 1019.8 |
| 20260504044605 | 48 | 74 | 0.0 | 1.0 | 0.00 | 0.00 | 0.00 | 85 | 1019.9 |
| 20260504044101 | 48 | 81 | 0.0 | 0.0 | 0.00 | 0.00 | 0.00 | 85 | 1019.7 |
| 20260504043558 | 48 | 81 | 0.0 | 0.0 | 0.00 | 0.00 | 0.00 | 85 | 1020.0 |
| 20260504043055 | 48 | 81 | 0.0 | 1.0 | 0.00 | 0.00 | 0.00 | 84 | 1019.8 |
| 20260504042552 | 48 | 60 | 0.0 | 1.0 | 0.00 | 0.00 | 0.00 | 84 | 1019.8 |
| 20260504042049 | 48 | 74 | 0.0 | 0.0 | 0.00 | 0.00 | 0.00 | 83 | 1020.0 |
| 20260504041545 | 49 | 74 | 0.0 | 0.0 | 0.00 | 0.00 | 0.00 | 83 | 1019.9 |
| 20260504041041 | 49 | 75 | 0.0 | 0.0 | 0.00 | 0.00 | 0.00 | 83 | 1020.0 |
| 20260504040539 | 49 | 8 | 0.0 | 1.0 | 0.00 | 0.00 | 0.00 | 83 | 1019.9 |
| 20260504040035 | 49 | 352 | 0.0 | 0.0 | 0.00 | 0.00 | 0.00 | 82 | 1020.3 |
| 20260504035532 | 49 | 352 | 0.0 | 0.0 | 0.00 | 0.00 | 0.00 | 82 | 1020.0 |
| 20260504035029 | 49 | 352 | 0.0 | 0.0 | 0.00 | 0.00 | 0.00 | 82 | 1020.0 |
| 20260504034527 | 49 | 90 | 0.0 | 0.0 | 0.00 | 0.00 | 0.00 | 81 | 1020.4 |
| 20260504034023 | 49 | 90 | 0.0 | 1.0 | 0.00 | 0.00 | 0.00 | 81 | 1020.4 |
| 20260504033521 | 49 | 69 | 0.0 | 1.0 | 0.00 | 0.00 | 0.00 | 81 | 1020.1 |
| 20260504033018 | 49 | 82 | 0.0 | 2.0 | 0.00 | 0.00 | 0.00 | 81 | 1020.0 |
| 20260504032515 | 49 | 54 | 0.0 | 0.0 | 0.00 | 0.00 | 0.00 | 80 | 1020.0 |
| 20260504032012 | 50 | 0 | 0.0 | 0.0 | 0.00 | 0.00 | 0.00 | 80 | 1020.1 |
| 20260504031509 | 50 | 14 | 0.0 | 1.0 | 0.00 | 0.00 | 0.00 | 80 | 1020.3 |
| 20260504031005 | 50 | 172 | 0.0 | 0.0 | 0.00 | 0.00 | 0.00 | 79 | 1020.4 |
| 20260504030503 | 50 | 15 | 0.0 | 0.0 | 0.00 | 0.00 | 0.00 | 79 | 1020.0 |
| 20260504025958 | 50 | 151 | 0.0 | 0.0 | 0.00 | 0.00 | 0.00 | 79 | 1020.4 |
| 20260504025455 | 50 | 151 | 0.0 | 1.0 | 0.00 | 0.00 | 0.00 | 79 | 1020.1 |
| 20260504024952 | 50 | 81 | 0.0 | 1.0 | 0.00 | 0.00 | 0.00 | 79 | 1020.1 |
| 20260504024449 | 50 | 81 | 0.0 | 0.0 | 0.00 | 0.00 | 0.00 | 78 | 1020.0 |
| 20260504023946 | 50 | 74 | 0.0 | 0.0 | 0.00 | 0.00 | 0.00 | 77 | 1019.9 |
| 20260504023443 | 50 | 90 | 0.0 | 0.0 | 0.00 | 0.00 | 0.00 | 77 | 1019.9 |
| 20260504022938 | 50 | 90 | 0.0 | 0.0 | 0.00 | 0.00 | 0.00 | 76 | 1020.0 |
| 20260504022435 | 51 | 81 | 0.0 | 0.0 | 0.00 | 0.00 | 0.00 | 76 | 1019.9 |
| 20260504021932 | 51 | 8 | 0.0 | 0.0 | 0.00 | 0.00 | 0.00 | 76 | 1019.8 |
| 20260504021429 | 51 | 0 | 0.0 | 0.0 | 0.00 | 0.00 | 0.00 | 75 | 1019.6 |
| 20260504020926 | 51 | 0 | 0.0 | 0.0 | 0.00 | 0.00 | 0.00 | 74 | 1019.8 |
| 20260504020423 | 51 | 0 | 0.0 | 0.0 | 0.00 | 0.00 | 0.00 | 73 | 1019.6 |
| 20260504015919 | 51 | 0 | 0.0 | 0.0 | 0.00 | 0.00 | 0.00 | 74 | 1019.4 |
| 20260504015415 | 51 | 0 | 0.0 | 0.0 | 0.00 | 0.00 | 0.00 | 74 | 1019.5 |
| 20260504014912 | 52 | 0 | 0.0 | 0.0 | 0.00 | 0.00 | 0.00 | 73 | 1019.4 |
| 20260504014408 | 52 | 0 | 0.0 | 0.0 | 0.00 | 0.00 | 0.00 | 71 | 1019.1 |
| 20260504013905 | 52 | 0 | 0.0 | 0.0 | 0.00 | 0.00 | 0.00 | 72 | 1019.1 |
| 20260504013403 | 52 | 0 | 0.0 | 0.0 | 0.00 | 0.00 | 0.00 | 70 | 1019.4 |
| 20260504012859 | 53 | 23 | 0.0 | 0.0 | 0.00 | 0.00 | 0.00 | 69 | 1019.2 |
| 20260504012357 | 52 | 0 | 0.0 | 0.0 | 0.00 | 0.00 | 0.00 | 70 | 1019.2 |
| 20260504011854 | 53 | 35 | 0.0 | 0.0 | 0.00 | 0.00 | 0.00 | 70 | 1019.1 |
| 20260504011350 | 53 | 35 | 0.0 | 0.0 | 0.00 | 0.00 | 0.00 | 67 | 1019.1 |
| 20260504010846 | 54 | 35 | 0.0 | 0.0 | 0.00 | 0.00 | 0.00 | 66 | 1019.0 |
| 20260504010342 | 54 | 35 | 0.0 | 0.0 | 0.00 | 0.00 | 0.00 | 66 | 1019.0 |
| 20260504005839 | 55 | 0 | 0.0 | 0.0 | 0.00 | 0.00 | 0.00 | 66 | 1018.8 |
| 20260504005336 | 55 | 0 | 0.0 | 0.0 | 0.00 | 0.00 | 0.00 | 64 | 1019.1 |
| 20260504004833 | 55 | 0 | 0.0 | 0.0 | 0.00 | 0.00 | 0.00 | 61 | 1018.9 |
| 20260504004331 | 56 | 0 | 0.0 | 0.0 | 0.00 | 0.00 | 0.00 | 61 | 1018.8 |
| 20260504003827 | 56 | 0 | 0.0 | 0.0 | 0.00 | 0.00 | 0.00 | 59 | 1019.0 |
| 20260504003324 | 57 | 0 | 0.0 | 0.0 | 0.00 | 0.00 | 0.00 | 58 | 1018.8 |
| 20260504002821 | 58 | 0 | 0.0 | 0.0 | 0.00 | 0.00 | 0.00 | 58 | 1018.9 |
| 20260504002318 | 59 | 0 | 0.0 | 0.0 | 0.00 | 0.00 | 0.00 | 57 | 1018.7 |
| 20260504001815 | 59 | 0 | 0.0 | 0.0 | 0.00 | 0.00 | 0.00 | 57 | 1018.6 |
| 20260504001313 | 60 | 0 | 0.0 | 0.0 | 0.00 | 0.00 | 0.00 | 54 | 1018.7 |
| 20260504000809 | 61 | 0 | 0.0 | 0.0 | 0.00 | 0.00 | 0.00 | 52 | 1018.9 |
| 20260504000306 | 62 | 279 | 0.0 | 0.0 | 0.00 | 0.00 | 0.00 | 50 | 1018.4 |
| 20260503235804 | 64 | 279 | 0.0 | 0.0 | 0.00 | 0.00 | 0.00 | 49 | 1018.7 |
| 20260503235301 | 66 | 279 | 0.0 | 0.0 | 0.00 | 0.00 | 0.00 | 45 | 1018.5 |
| 20260503234759 | 69 | 279 | 0.0 | 0.0 | 0.00 | 0.00 | 0.00 | 41 | 1018.5 |
| 20260503234257 | 70 | 279 | 0.0 | 0.0 | 0.00 | 0.00 | 0.00 | 40 | 1018.3 |
| 20260503233754 | 72 | 286 | 0.0 | 0.0 | 0.00 | 0.00 | 0.00 | 39 | 1018.7 |
| 20260503233249 | 73 | 286 | 0.0 | 0.0 | 0.00 | 0.00 | 0.00 | 39 | 1018.4 |
| 20260503232747 | 75 | 286 | 0.0 | 0.0 | 0.00 | 0.00 | 0.00 | 36 | 1018.4 |
| 20260503232244 | 75 | 286 | 0.0 | 1.0 | 0.00 | 0.00 | 0.00 | 34 | 1018.5 |
| 20260503231742 | 76 | 294 | 0.0 | 1.0 | 0.00 | 0.00 | 0.00 | 35 | 1018.3 |
| 20260503231239 | 76 | 23 | 0.0 | 0.0 | 0.00 | 0.00 | 0.00 | 35 | 1018.3 |
| 20260503230734 | 75 | 345 | 1.0 | 2.0 | 0.00 | 0.00 | 0.00 | 34 | 1018.4 |
| 20260503230232 | 75 | 286 | 0.0 | 1.0 | 0.00 | 0.00 | 0.00 | 32 | 1018.4 |
| 20260503225729 | 76 | 354 | 0.0 | 0.0 | 0.00 | 0.00 | 0.00 | 37 | 1018.2 |
| 20260503225229 | 74 | 0 | 0.0 | 1.0 | 0.00 | 0.00 | 0.00 | 36 | 1018.5 |
| 20260503224726 | 73 | 60 | 0.0 | 2.0 | 0.00 | 0.00 | 0.00 | 33 | 1018.4 |
| 20260503224224 | 74 | 26 | 1.0 | 2.0 | 0.00 | 0.00 | 0.00 | 30 | 1018.6 |